Weather in Novonikolaevskiy

Russia / Republic of Tatarstan     55°53′46″N   48°57′46″E
temp.,
°C
wind,
m/s
gust,
m/s
humid.,
%
clouds,
%
prec.,
mm/h
press.,
hPa
HPBL,
m
23 september, thu
thu2300:00+9se51195100 0.2 1021520
03:00+9ese599598 0.2 1021391
06:00+9ese51095100 0.0 1021451
09:00+9ese51092100 2.4 1022420
12:00+10se51079100 0.0 1022551
15:00+9ese51091100 1.0 1021435
18:00+9se61388100 0.2 1021663
21:00+9se61192100 0.8 1019640
24 september, fri
fri2400:00+8se71590100 1.6 1019707
03:00+8ese61292100 3.3 1017601
06:00+8se71393100 0.5 1015709
09:00+9se61287100 0.8 1015614
12:00+10se61274100 0.0 1014581
15:00+9sse71287100 0.3 1014630
18:00+8se61396100 4.4 1014695
21:00+9sse61394100 7.5 1014825
25 september, sat
sat2500:00+8se51193100 2.6 1014510
03:00+8ese51094100 3.0 1013530
06:00+8se51093100 0.4 1012571
09:00+7se5994100 1.1 1012559
12:00+7ese4593100 1.0 1011402
15:00+8ese3388100 1.0 1011478
18:00+8e2291100 0.0 101254
21:00+7ene2291100 0.0 101163
26 september, sun
sun2600:00+7ne1289100 0.0 101134
03:00+7nne1187100 0.0 101120
06:00+7nne2387100 0.0 101077
09:00+9ne3477100 0.0 1010306
12:00+12ne3366100 0.0 1010720
15:00+11ne457374 0.0 1010534
18:00+9n368899 0.0 1010190
21:00+9ne4887100 0.0 1010311
27 september, mon
mon2700:00+8ne51089100 0.0 1011396
03:00+8ne61180100 0.0 1012548
06:00+8ene61282100 0.0 1014675
09:00+7ene81186100 0.1 1016786
12:00+4ene61095100 0.7 1019801
15:00+7ene6107091 0.7 1020829
18:00+6ene5126610 0.0 1022410
21:00+4ne411715 0.0 1024264